Home > Weather > Bijar > Past weeks

Flag for Iran Weather for the Past 2 Weeks in Bijar, Iran

Now
52 °F

Overcast.


Feels Like: 46 °F
Forecast: 31 / 47 °F
Wind: 18 mph from Southwest

Location: Sanandaj Airport

Current Time: Feb 6, 2016 at 5:20:04 PM

Latest Report: Feb 6, 2016 at 4:21 PM


Visibility: N/A

Pressure: 29.98 "Hg (23.78 "Hg at 1927m altitude)

Humidity: 26%

Dew point: 18 °F

Location of BijarLocation

Historic Weather in Bijar — Graph

°F

Bijar Temperature Yesterday

Maximum temperature yesterday: 63 °F (at 3:26 PM)
Minimum temperature yesterday: 23 °F (at 7:22 AM)
Average temperature yesterday: 40 °F

High & Low Weather Summary for the Past Weeks

 TemperatureHumidityPressure
High63 °F (Feb 5, 3:26 PM)100% (Jan 23, 11:24 PM)30.42 "Hg (Jan 23, 11:24 PM)
Low16 °F (Jan 29, 4:21 AM)10% (Feb 6, 12:28 PM)29.83 "Hg (Jan 25, 1:00 PM)
Average36 °F62%30.13 "Hg
* Reported Jan 22 2:30 PM — Feb 6 3:22 PM, Bijar, Weather by CustomWeather, © 2016

Note: Actual official high and low records may vary slightly from our data, if they occured in-between our weather recording intervals... More about our weather records

Advertising

Bijar Weather History for the Previous 24 Hours

 ConditionsComfort  
Time TempWeatherWind HumidityBarometerVisibility
3:22 PM
Sat, Feb 6
55 °FMore clouds than sun.14 mph14%29.98 "HgN/A
2:22 PM55 °FScattered clouds.16 mph18%29.98 "HgN/A
1:23 PM55 °FBroken clouds.20 mph14%29.98 "HgN/A
12:28 PM59 °FScattered clouds.14 mph10%30.01 "HgN/A
11:21 AM50 °FPassing clouds.No wind28%30.07 "HgN/A
10:26 AM45 °FSunny.2 mph39%30.09 "Hg10 mi
9:23 AM37 °FSunny.No wind56%30.12 "Hg10 mi
8:24 AM30 °FSunny.No wind75%30.12 "Hg10 mi
7:24 AM25 °FClear.No wind86%30.09 "Hg10 mi
6:30 AM27 °FClear.2 mph80%30.12 "Hg10 mi
5:22 AM25 °FClear.No wind80%30.15 "Hg10 mi
4:30 AM30 °FClear.No wind69%30.18 "Hg10 mi
3:30 AM34 °FClear.No wind65%30.18 "Hg10 mi
2:30 AM36 °FClear.2 mph65%30.18 "Hg10 mi
12:30 AM36 °FClear.2 mph60%30.21 "Hg10 mi
11:22 PM
Fri, Feb 5
36 °FClear.2 mph60%30.21 "Hg10 mi
10:24 PM39 °FClear.No wind48%30.21 "Hg10 mi
9:30 PM45 °FClear.5 mph37%30.24 "Hg10 mi
8:26 PM48 °FClear.5 mph29%30.24 "Hg10 mi
7:23 PM50 °FClear.7 mph28%30.21 "Hg10 mi
6:22 PM55 °FSunny.12 mph21%30.21 "Hg10 mi
5:23 PM59 °FSunny.9 mph14%30.21 "Hg10 mi
Weather by CustomWeather, © 2016

See weather overviewHow to use our weather pages